Wind_Speed
7 5 9 11 12 12 14 16 17 16 15 12 10 6 3 2 4 5 7 8 10 12 15 19 22 23 23 24 22 23 25 28 29 28 27 18 19 24 22 24 23 23 22
11 10 10 10 11 12 13 15 15 14 14 12 9 8 6 3 2 2 5 6 10 11 14 15 19 22 23 24 25 27 30 35 32 24 24 26 23 20 23 27 28 29 28
6 7 8 9 12 14 13 13 13 12 11 11 8 9 9 6 5 2 3 3 7 11 13 15 16 19 25 23 21 19 19 24 17 17 18 16 18 19 16 23 31 31 31
6 7 8 9 12 15 16 14 12 9 8 7 9 10 10 7 5 3 0 4 3 3 9 8 6 7 10 9 7 9 9 10 16 11 15 19 19 20 21 22 19 13 14
9 8 8 10 12 16 18 15 10 9 6 5 7 8 10 9 7 4 3 3 4 7 6 10 11 9 9 13 16 15 14 12 15 13 16 16 14 17 20 20 24 27 27
5 6 9 12 14 16 19 17 11 8 5 5 7 8 8 8 8 6 5 4 4 4 3 4 5 6 7 5 7 6 7 9 11 14 15 16 14 18 18 16 17 17 17
9 11 11 12 15 17 19 15 11 7 5 4 6 7 7 6 6 6 6 7 8 6 4 4 2 2 3 4 5 5 5 6 7 8 9 10 11 12 11 12 16 16 12
12 13 13 14 15 17 20 16 11 7 6 6 7 7 7 7 5 5 7 8 10 9 7 5 4 4 4 4 6 7 7 7 8 9 9 8 8 9 8 11 10 10 11
17 18 16 15 15 17 19 18 15 11 9 8 8 8 7 8 9 10 10 11 9 8 6 5 5 5 6 8 9 7 8 9 10 9 9 10 10 11 13 12 14 16 18
19 18 18 15 16 19 21 19 16 11 10 11 10 9 8 10 10 12 13 12 12 8 8 8 9 9 9 11 14 16 13 14 11 13 13 10 13 14 16 17 19 21 22
18 18 17 16 18 21 21 19 13 11 10 12 14 14 13 17 16 14 14 13 10 9 10 12 10 13 15 19 19 14 12 10 15 13 14 19 21 20 21 22 22 23 24
17 16 16 18 19 20 21 15 14 13 14 13 16 11 13 17 18 16 14 12 10 12 12 11 12 15 19 17 11 9 9 13 17 17 16 17 18 19 20 21 22 22 22
18 18 19 19 19 16 17 13 18 19 18 18 17 13 16 18 16 15 14 12 12 18 11 14 19 17 13 13 12 11 13 14 15 17 17 17 16 16 16 17 17 18 19
19 20 18 13 13 15 12 18 20 15 12 14 9 14 19 20 19 13 14 14 15 14 18 20 16 14 15 15 14 14 14 14 13 13 13 14 16 17 18 19 20 19 20
17 16 11 7 8 11 16 13 10 9 13 12 12 16 16 14 13 13 13 14 13 15 17 16 15 15 16 14 12 11 10 11 12 13 15 16 16 17 17 18 18 18 17
14 6 8 9 9 8 9 8 10 13 14 14 14 16 16 13 13 14 13 14 16 15 16 15 15 13 11 10 9 10 11 13 14 14 14 14 15 15 16 16 16 15 15
6 4 5 8 10 12 13 13 13 15 17 16 15 13 13 13 14 15 16 16 16 16 15 12 10 9 9 10 12 13 14 14 13 13 13 12 12 14 15 15 13 12 11
4 6 8 11 12 11 11 11 11 11 12 13 13 13 14 15 16 17 17 17 16 13 10 9 9 11 12 13 14 14 13 12 11 10 9 10 12 13 15 16 14 12 10
5 7 9 10 9 7 6 7 8 9 11 12 13 14 14 15 15 15 14 12 10 8 9 11 12 14 15 15 13 12 11 10 8 8 8 10 11 12 14 16 13 10 10
6 6 5 4 4 4 5 7 8 9 11 12 13 14 14 14 12 11 9 8 8 9 11 13 14 15 15 14 13 11 10 9 8 8 8 10 11 12 12 13 11 10 9
4 4 3 4 4 4 5 5 5 5 6 7 8 7 10 9 9 8 8 9 10 12 12 14 16 15 14 13 12 10 10 9 9 9 9 10 11 11 11 10 10 9 9
5 4 4 3 1 2 3 6 8 9 11 9 7 5 6 8 9 9 11 12 13 13 14 15 15 14 13 13 12 11 11 10 10 9 10 10 11 11 11 11 10 9 9
5 6 6 5 3 3 7 9 10 12 12 12 9 8 7 9 11 13 14 15 16 15 15 16 15 15 14 14 13 14 13 12 12 11 11 11 11 11 11 10 9 8 7
6 6 6 5 8 10 12 13 14 13 13 14 14 13 11 10 12 14 16 17 17 17 18 17 18 17 16 15 15 15 14 14 14 13 13 12 12 12 12 11 9 7 6
8 9 7 11 13 15 16 15 14 16 16 17 17 15 16 16 16 18 18 17 17 18 19 18 18 18 17 17 17 16 16 16 15 16 15 15 14 13 12 12 11 11 9
9 11 13 13 14 16 16 14 15 18 19 20 20 19 19 21 22 23 18 20 19 19 19 19 19 18 18 19 19 19 18 18 18 18 17 17 16 15 14 13 13 13 12
Wind_Direction
246 290 315 327 337 347 350 349 351 356 4 7 12 13 12 278 240 254 260 248 245 238 229 230 235 244 251 257 257 259 261 260 265 263 261 261 278 252 256 263 268 270 271
242 266 305 326 340 349 349 345 347 352 360 3 24 25 23 27 52 270 254 233 226 225 229 237 241 246 250 255 257 259 264 263 268 252 267 263 274 263 258 264 271 259 268
230 273 304 337 345 350 350 340 341 347 355 9 16 23 35 75 79 47 308 306 257 242 240 247 251 263 257 257 257 271 271 251 275 273 276 278 266 273 294 277 265 267 270
268 286 316 342 346 350 355 349 335 340 349 5 20 28 27 34 42 49 97 271 306 302 257 265 302 294 275 278 234 248 268 263 270 275 290 283 290 287 281 280 292 282 282
258 283 307 330 345 349 351 354 346 332 337 356 7 18 20 24 25 30 30 351 318 288 283 260 260 258 265 244 271 265 264 271 261 285 270 275 279 288 290 291 289 284 282
253 277 299 317 331 334 346 346 346 333 328 351 358 4 9 17 20 16 19 11 358 341 318 283 288 294 296 296 296 306 293 285 279 275 267 271 267 268 286 280 282 270 276
291 296 302 307 320 325 336 339 335 323 297 327 350 357 358 356 1 12 19 15 8 0 344 320 328 301 312 302 305 306 305 300 294 292 289 280 269 273 289 289 278 278 275
298 300 300 301 304 312 323 333 315 303 275 285 323 331 333 339 334 332 333 336 338 322 320 316 312 314 314 319 312 303 295 297 293 293 291 287 274 288 281 288 280 301 298
288 293 296 298 298 302 306 315 301 278 266 273 296 308 317 330 321 314 311 311 320 301 295 309 306 300 291 305 301 302 308 307 308 302 293 291 292 292 281 287 295 296 296
292 296 297 298 287 289 289 300 300 286 266 272 287 299 310 316 314 306 313 309 311 304 290 299 289 291 300 303 306 300 294 295 301 306 322 308 294 288 289 285 286 288 290
295 290 287 288 287 286 283 284 277 268 273 263 273 287 296 307 302 303 300 301 297 304 296 297 293 299 300 304 300 293 293 285 302 308 292 302 296 293 290 289 291 292 295
290 287 291 292 284 275 264 268 258 266 257 267 269 284 302 297 299 299 299 298 283 295 296 304 299 299 304 310 320 298 284 291 298 301 302 302 303 301 300 300 301 300 299
294 297 295 290 282 260 261 251 272 255 266 283 276 267 288 290 287 281 286 274 278 297 284 300 309 307 303 304 304 298 293 294 298 300 301 304 306 307 309 310 310 307 305
296 292 289 278 222 242 232 246 260 274 243 252 272 293 290 296 295 270 266 281 292 284 298 304 299 298 298 300 300 299 300 301 303 306 311 313 314 314 313 311 310 309 309
291 292 272 264 229 241 239 264 243 246 274 258 271 278 284 287 279 280 269 281 279 284 288 289 291 293 294 295 294 295 299 305 311 317 318 318 315 314 314 313 312 311 308
287 267 246 231 247 243 235 228 233 254 269 288 284 286 284 277 274 281 277 272 273 278 284 288 291 290 287 286 292 302 312 316 317 318 318 316 316 318 319 317 314 310 308
241 217 238 262 260 279 282 272 271 270 278 281 278 277 277 272 271 273 276 278 279 282 285 286 283 282 291 300 309 314 315 313 315 316 315 321 333 340 339 333 326 319 313
224 232 252 264 272 269 263 260 263 266 269 270 271 269 268 269 271 271 272 275 278 281 282 279 285 292 298 303 306 306 306 310 312 316 327 340 348 351 350 346 338 331 327
247 258 261 260 259 261 268 276 279 280 277 276 274 271 266 264 262 263 266 268 270 270 276 286 292 296 299 300 300 300 304 304 310 324 333 335 339 344 348 348 343 336 331
255 250 242 246 263 285 297 302 302 298 292 283 276 270 264 261 256 253 252 257 270 283 289 291 292 293 294 293 293 293 294 300 312 319 323 328 331 331 330 338 342 336 333
231 230 245 260 272 289 299 304 310 321 323 315 297 278 261 246 243 248 259 269 279 285 290 292 292 291 287 284 282 282 287 291 298 304 313 322 325 325 322 319 331 328 329
210 221 224 213 236 320 343 343 345 350 356 355 329 305 269 260 262 265 271 278 284 289 296 294 292 287 282 277 273 272 278 288 296 303 307 310 313 316 317 314 304 309 321
217 211 218 224 234 304 328 329 335 337 346 350 342 329 305 286 281 284 286 287 287 294 299 297 292 285 273 269 268 268 274 285 291 296 299 301 305 308 306 307 307 303 292
219 223 226 256 288 296 300 300 308 318 321 334 335 323 317 308 302 298 294 291 290 295 298 295 287 281 274 270 268 267 269 273 279 285 289 294 297 297 296 292 288 284 275
246 255 254 276 274 284 280 276 284 300 298 312 317 308 305 306 309 311 309 299 293 291 291 290 283 281 277 271 268 267 269 273 277 280 281 283 286 287 287 288 277 270 265
240 259 272 274 289 300 299 288 279 281 287 293 296 294 291 290 291 293 294 304 296 293 293 296 297 289 281 275 272 271 270 272 273 273 274 275 277 279 279 280 277 268 262
Height
3169 3169 3170 3169 3166 3163 3161 3158 3155 3151 3147 3145 3142 3139 3137 3137 3138 3138 3139 3140 3141 3142 3144 3147 3150 3153 3155 3156 3157 3157 3158 3158 3157 3158 3157 3157 3156 3156 3158 3158 3159 3159 3158
3168 3170 3169 3167 3165 3162 3159 3157 3154 3151 3148 3145 3143 3141 3138 3137 3137 3137 3138 3138 3140 3141 3143 3145 3147 3148 3149 3150 3150 3149 3149 3151 3149 3148 3150 3151 3151 3151 3151 3152 3151 3152 3152
3168 3168 3167 3165 3164 3161 3159 3157 3154 3151 3149 3146 3144 3142 3140 3138 3137 3137 3137 3138 3139 3140 3141 3142 3143 3144 3144 3144 3144 3142 3143 3144 3144 3146 3145 3144 3145 3145 3145 3145 3146 3144 3145
3167 3167 3165 3164 3162 3159 3157 3156 3153 3151 3149 3147 3146 3144 3142 3139 3138 3137 3138 3139 3139 3138 3139 3139 3139 3140 3139 3137 3138 3140 3140 3141 3141 3141 3141 3141 3140 3140 3140 3140 3139 3137 3136
3166 3165 3164 3163 3160 3158 3156 3154 3152 3151 3149 3148 3146 3145 3144 3142 3140 3138 3139 3139 3139 3138 3138 3138 3137 3138 3138 3138 3138 3138 3138 3137 3137 3138 3137 3137 3137 3136 3136 3135 3134 3133 3132
3163 3163 3163 3162 3159 3157 3155 3153 3151 3151 3150 3149 3147 3146 3144 3143 3142 3141 3140 3139 3138 3137 3137 3137 3136 3136 3137 3137 3137 3136 3136 3136 3135 3135 3135 3135 3134 3133 3133 3131 3131 3129 3128
3161 3161 3161 3160 3158 3155 3154 3152 3151 3150 3149 3149 3148 3147 3145 3143 3142 3142 3141 3140 3138 3137 3136 3136 3135 3135 3135 3135 3135 3134 3134 3133 3133 3132 3131 3131 3130 3130 3129 3128 3127 3126 3125
3159 3158 3158 3157 3155 3154 3152 3151 3149 3148 3148 3148 3147 3146 3145 3143 3142 3142 3141 3140 3138 3136 3135 3134 3134 3134 3134 3134 3134 3133 3132 3130 3130 3129 3128 3128 3128 3128 3127 3127 3125 3124 3123
3156 3154 3154 3152 3152 3151 3149 3148 3147 3146 3146 3146 3145 3144 3143 3142 3141 3140 3140 3139 3137 3135 3134 3133 3133 3133 3132 3132 3132 3131 3130 3128 3127 3126 3126 3125 3125 3125 3125 3124 3123 3122 3121
3151 3150 3149 3148 3147 3147 3146 3145 3143 3143 3143 3144 3144 3143 3143 3142 3140 3138 3137 3135 3134 3133 3132 3132 3132 3132 3131 3130 3129 3127 3127 3125 3124 3123 3123 3122 3122 3122 3121 3120 3119 3117 3116
3147 3146 3145 3143 3142 3142 3141 3140 3139 3140 3140 3141 3141 3140 3140 3139 3138 3136 3134 3132 3131 3130 3129 3128 3129 3129 3128 3127 3124 3123 3122 3122 3121 3120 3119 3118 3117 3116 3115 3114 3113 3111 3109
3142 3141 3139 3138 3137 3136 3135 3135 3136 3136 3136 3137 3137 3137 3136 3135 3134 3132 3131 3129 3128 3127 3126 3125 3125 3125 3124 3122 3120 3119 3119 3118 3117 3116 3114 3113 3111 3110 3109 3108 3106 3104 3103
3136 3135 3133 3132 3131 3131 3131 3132 3132 3131 3133 3132 3131 3132 3132 3130 3128 3128 3127 3126 3125 3124 3123 3122 3122 3121 3120 3119 3117 3116 3115 3113 3113 3111 3110 3109 3107 3106 3104 3103 3101 3099 3098
3130 3129 3127 3125 3127 3127 3127 3127 3128 3129 3128 3127 3128 3128 3127 3124 3123 3123 3124 3123 3122 3121 3121 3120 3119 3118 3117 3116 3114 3112 3111 3109 3108 3107 3106 3106 3104 3102 3100 3099 3097 3095 3093
3125 3123 3122 3122 3123 3124 3124 3124 3124 3125 3125 3124 3124 3124 3122 3120 3120 3119 3120 3119 3118 3117 3116 3116 3115 3114 3113 3111 3110 3108 3107 3106 3105 3103 3102 3101 3100 3098 3096 3094 3092 3090 3088
3120 3119 3120 3120 3121 3121 3120 3121 3120 3122 3121 3121 3121 3119 3118 3116 3116 3116 3116 3115 3114 3113 3113 3112 3112 3111 3110 3108 3107 3105 3104 3102 3101 3100 3099 3098 3096 3095 3092 3090 3088 3086 3084
3117 3118 3118 3119 3119 3118 3118 3118 3119 3119 3119 3117 3117 3115 3115 3114 3113 3112 3112 3112 3110 3109 3109 3108 3108 3107 3106 3105 3103 3101 3100 3099 3097 3096 3096 3095 3093 3091 3089 3086 3084 3082 3080
3114 3116 3116 3117 3117 3115 3115 3114 3115 3114 3114 3114 3113 3113 3112 3111 3110 3109 3108 3106 3107 3105 3105 3105 3105 3104 3103 3101 3100 3098 3097 3096 3095 3094 3093 3091 3090 3087 3085 3082 3080 3078 3077
3114 3115 3115 3114 3114 3114 3113 3113 3113 3113 3112 3111 3109 3108 3107 3105 3105 3103 3104 3104 3103 3103 3102 3102 3101 3100 3099 3098 3097 3096 3094 3094 3092 3091 3090 3088 3086 3084 3082 3080 3078 3076 3074
3113 3113 3113 3113 3113 3112 3112 3111 3111 3110 3109 3107 3105 3104 3102 3102 3102 3101 3100 3101 3101 3101 3100 3100 3098 3097 3096 3094 3093 3092 3092 3090 3089 3088 3087 3085 3083 3082 3080 3078 3076 3074 3072
3112 3112 3112 3112 3112 3112 3111 3110 3110 3109 3106 3104 3102 3100 3100 3100 3098 3100 3098 3099 3099 3098 3096 3096 3095 3093 3092 3091 3090 3089 3088 3088 3086 3085 3084 3082 3081 3079 3077 3076 3074 3072 3070
3111 3111 3111 3111 3111 3111 3110 3110 3109 3107 3104 3103 3101 3099 3099 3098 3098 3097 3097 3096 3096 3094 3092 3091 3090 3089 3088 3087 3086 3086 3085 3085 3083 3082 3080 3079 3077 3076 3074 3072 3071 3069 3067
3110 3110 3111 3111 3110 3110 3109 3108 3107 3105 3103 3101 3100 3099 3097 3097 3096 3095 3094 3093 3092 3090 3088 3086 3085 3084 3084 3083 3082 3081 3081 3080 3079 3077 3076 3075 3073 3072 3070 3069 3067 3066 3065
3109 3109 3109 3109 3109 3108 3107 3106 3104 3103 3101 3099 3098 3097 3096 3095 3093 3092 3090 3089 3087 3085 3083 3082 3081 3080 3079 3078 3077 3077 3076 3076 3074 3073 3072 3071 3069 3068 3067 3065 3064 3063 3062
3106 3106 3107 3107 3106 3105 3103 3102 3101 3099 3097 3096 3095 3094 3092 3091 3090 3088 3086 3084 3083 3081 3079 3078 3076 3074 3073 3072 3072 3072 3071 3070 3069 3068 3067 3066 3065 3064 3062 3061 3060 3059 3058
3103 3103 3103 3102 3101 3100 3098 3097 3095 3094 3093 3092 3091 3090 3089 3088 3086 3084 3082 3081 3079 3077 3075 3073 3071 3069 3068 3066 3066 3065 3064 3064 3063 3062 3061 3060 3059 3058 3057 3056 3055 3055 3054